This demonstration page uses our WeatherBlox Daily Observations layout. Learn more.

Left ArrowRight Arrow

Hourly Observations for December 18, 2020

Temp ( °F °C ) Dew Point ( °F °C ) Humidity (%) Winds ( mph kmh ) Pressure ( in mb ) Visibility ( mi km ) Precip ( " mm )
12:15 am 00:15 Clear 35 1.9 28 -2.5 73 73 SSE 15 24 29.89 1012 10 16 N/A
12:35 am 00:35 Clear 36 2 28 -2.2 74 74 SSE 16 26 29.88 1012 10 16 N/A
12:55 am 00:55 Clear 36 2.1 28 -2.1 74 74 SSE 16 26 29.86 1011 10 16 N/A
1:15 am 01:15 Clear 36 2 28 -2 75 75 SSE 17 28 29.85 1011 10 16 N/A
1:35 am 01:35 Clear 36 2.1 29 -1.9 75 75 SSE 18 30 29.83 1010 10 16 N/A
1:55 am 01:55 Clear 36 2.3 29 -1.8 75 75 S 17 28 29.83 1010 10 16 N/A
2:15 am 02:15 Clear 36 2 29 -1.8 76 76 S 16 26 29.84 1010 10 16 N/A
2:35 am 02:35 Clear 35 1.8 29 -1.8 77 77 S 15 24 29.84 1010 10 16 N/A
2:55 am 02:55 Clear 35 1.7 29 -1.7 78 78 S 15 24 29.84 1010 10 16 N/A
3:15 am 03:15 Clear 35 1.8 29 -1.7 78 78 S 16 26 29.84 1010 10 16 N/A
3:35 am 03:35 Clear 36 2.1 29 -1.7 76 76 SSE 18 30 29.82 1010 10 16 N/A
3:55 am 03:55 Clear 36 2 29 -1.7 77 77 SSE 15 24 29.83 1010 10 16 N/A
4:15 am 04:15 Clear 35 1.8 29 -1.6 78 78 SSE 12 19 29.82 1010 10 16 N/A
4:35 am 04:35 Clear 35 1.5 29 -1.5 81 81 SSE 10 17 29.81 1009 10 16 N/A
4:55 am 04:55 Clear 34 1.3 29 -1.5 82 82 SSE 13 20 29.80 1009 10 16 N/A
5:15 am 05:15 Clear 34 1.2 29 -1.5 82 82 SSE 10 17 29.80 1009 10 16 N/A
5:35 am 05:35 Clear 35 1.5 29 -1.5 81 81 S 8 13 29.80 1009 10 16 N/A
5:55 am 05:55 Clear 35 1.5 29 -1.6 80 80 SSE 8 13 29.80 1009 10 16 N/A
6:15 am 06:15 Clear 34 1.2 29 -1.8 81 81 N N/A 29.81 1010 10 16 N/A
6:35 am 06:35 Clear 33 0.6 28 -2.2 82 82 S 3 6 29.83 1010 10 16 N/A
6:55 am 06:55 Clear 32 -0.1 27 -2.7 83 83 SSE 3 6 29.84 1010 10 16 N/A
7:15 am 07:15 Clear 29 -1.9 25 -4 86 86 N N/A 29.86 1011 10 16 N/A
7:35 am 07:35 Clear 28 -2.1 25 -3.7 89 89 N N/A 29.86 1011 10 16 N/A
7:55 am 07:55 Clear 24 -4.2 22 -5.5 91 91 NW 5 7 29.88 1012 10 16 N/A
8:15 am 08:15 Sunny 24 -4.3 22 -5.4 92 92 NW 3 6 29.90 1012 10 16 N/A
8:35 am 08:35 Sunny 25 -3.8 23 -5 91 91 NW 7 11 29.89 1012 10 16 N/A
8:55 am 08:55 Sunny 24 -4.6 22 -5.8 91 91 NW 6 9 29.91 1013 10 16 N/A
9:15 am 09:15 Sunny 25 -3.9 23 -5.1 91 91 NW 5 7 29.90 1013 10 16 N/A
9:35 am 09:35 Sunny 28 -2.4 25 -4.1 88 88 NW 3 6 29.90 1012 10 16 N/A
9:55 am 09:55 Sunny 30 -1 26 -3.3 85 85 NW 8 13 29.90 1013 10 16 N/A
10:15 am 10:15 Sunny 30 -1 26 -3.3 85 85 NW 8 13 29.91 1013 10 16 N/A
10:35 am 10:35 Sunny 32 0.2 28 -2.3 84 84 NW 7 11 29.89 1012 10 16 N/A
10:55 am 10:55 Sunny 32 0.1 28 -2.4 83 83 NW 13 20 29.89 1012 10 16 N/A
11:15 am 11:15 Sunny 34 0.9 28 -2.5 78 78 NW 13 20 29.90 1012 10 16 N/A
11:35 am 11:35 Sunny 35 1.5 28 -2.3 76 76 NW 14 22 29.89 1012 10 16 N/A
11:55 am 11:55 Sunny 36 2.1 29 -1.9 75 75 NNW 12 19 29.89 1012 10 16 N/A
12:15 pm 12:15 Sunny 36 2.4 29 -1.8 74 74 NW 12 19 29.89 1012 10 16 N/A
12:35 pm 12:35 Sunny 38 3.3 29 -1.5 71 71 NNW 12 19 29.89 1012 10 16 N/A
12:55 pm 12:55 Sunny 39 4 30 -1.2 69 69 NNW 8 13 29.89 1012 10 16 N/A
1:15 pm 13:15 Sunny 41 5 31 -0.7 67 67 NNW 13 20 29.89 1012 10 16 N/A
1:35 pm 13:35 Sunny 41 5.2 31 -0.5 67 67 NNW 12 19 29.90 1012 10 16 N/A
1:55 pm 13:55 Sunny 41 5.1 31 -0.3 68 68 NNW 12 19 29.91 1013 10 16 N/A
2:15 pm 14:15 Sunny 41 5.2 32 -0.2 68 68 NNW 13 20 29.91 1013 10 16 N/A
2:35 pm 14:35 Sunny 42 5.3 32 undefined 69 69 NNW 10 17 29.92 1013 10 16 N/A
2:55 pm 14:55 Sunny 42 5.5 32 undefined 68 68 NNW 12 19 29.93 1014 10 16 N/A
3:15 pm 15:15 Mostly Cloudy 42 5.6 31 -0.5 65 65 NNW 14 22 29.95 1014 10 16 N/A
3:35 pm 15:35 Partly Cloudy 42 5.5 31 -0.3 67 67 NNW 12 19 29.97 1015 10 16 N/A
3:55 pm 15:55 Sunny 42 5.5 31 -0.5 66 66 NNW 12 19 29.98 1015 10 16 N/A
4:15 pm 16:15 Sunny 41 5.1 31 -0.5 67 67 NNW 9 15 30.00 1016 10 16 N/A
4:35 pm 16:35 Partly Cloudy 40 4.2 31 -0.5 72 72 NNW 8 13 30.03 1017 10 16 N/A
4:55 pm 16:55 Cloudy 40 4.5 31 -0.5 70 70 NNW 8 13 30.03 1017 10 16 N/A
5:15 pm 17:15 Cloudy 40 4.4 31 -0.5 71 71 NNW 6 9 30.05 1018 10 16 N/A
5:35 pm 17:35 Cloudy 39 4 31 -0.5 73 73 NNW 7 11 30.07 1018 10 16 N/A
5:55 pm 17:55 Mostly Cloudy 39 4 31 -0.5 73 73 NW 8 13 30.08 1019 10 16 N/A
6:15 pm 18:15 Cloudy 39 4 31 -0.6 72 72 NW 10 17 30.10 1019 10 16 N/A
6:35 pm 18:35 Mostly Cloudy 39 3.7 30 -1 72 72 NNW 12 19 30.11 1020 10 16 N/A
6:55 pm 18:55 Clear 38 3.6 30 -1.1 72 72 N 10 17 30.11 1020 10 16 N/A
7:15 pm 19:15 Clear 37 3 30 -1 75 75 N 7 11 30.13 1020 10 16 N/A
7:35 pm 19:35 Clear 37 2.5 30 -1 78 78 NNW 9 15 30.14 1021 10 16 N/A
7:55 pm 19:55 Clear 36 2.3 30 -1.1 78 78 NNW 7 11 30.15 1021 10 16 N/A
8:15 pm 20:15 Clear 36 2.1 30 -1.2 79 79 N 9 15 30.17 1022 10 16 N/A
8:35 pm 20:35 Clear 36 2.2 29 -1.4 77 77 N 10 17 30.17 1022 10 16 N/A
8:55 pm 20:55 Clear 35 1.6 29 -1.6 80 80 N 9 15 30.19 1022 10 16 N/A
9:15 pm 21:15 Clear 34 1 29 -1.8 82 82 N 9 15 30.20 1023 10 16 N/A
9:35 pm 21:35 Clear 33 0.6 28 -2.2 82 82 N 9 15 30.21 1023 10 16 N/A
9:55 pm 21:55 Clear 32 0.2 27 -2.6 82 82 N 9 15 30.21 1023 10 16 N/A
10:15 pm 22:15 Clear 32 undefined 27 -2.8 82 82 N 10 17 30.22 1023 10 16 N/A
10:35 pm 22:35 Clear 32 -0.2 26 -3.1 81 81 NW 7 11 30.23 1024 10 16 N/A
10:55 pm 22:55 Clear 28 -2.1 24 -4.2 86 86 NW 7 11 30.25 1024 10 16 N/A
11:15 pm 23:15 Clear 29 -1.5 26 -3.5 86 86 NNW 8 13 30.24 1024 10 16 N/A
11:35 pm 23:35 Clear 29 -1.6 25 -4 84 84 NW 7 11 30.24 1024 10 16 N/A
11:55 pm 23:55 Clear 29 -1.6 25 -4.1 83 83 NW 9 15 30.25 1024 10 16 N/A

Powered by AerisWeather